Zurück zum Katalog

CZ-6A DEB

AktivPO
NORAD 61489·DEBRIS·🇨🇳 China

Gestartet Aug 6, 2024 von Taiyuan Satellite Launch Center

Loading…

Nächste Überflüge (nächste 24 Stunden)

TLE

AktuellSource: Space-Track

Epoche: Sep 13, 2026, 01:20 UTC

1 61489U 24140AAX 26256.05615343  .00010931  00000-0  13279-2 0  9995
2 61489  89.2121 279.2841 0066742 194.4140 165.5183 14.81841379105993

Verfolge CZ-6A DEB in Echtzeit mit AllMySat

Download on the App Store